Location: *
(55.5817°S, 142.4781°W)
Time: 07:39:50
(UTC+00:00)

SJ 16-02 - Pass Details

Date: 29 April 2025
Orbit: 587 x 597 km, 75.0° (Epoch: 24 May)

Event Time Altitude Azimuth Distance (km) Brightness Sun altitude
Exits shadow 13:54:24 - 192° (SSW) 2,355 4.3 -25.1°
Reaches altitude 10° 13:56:02 10° 176° (S) 1,963 4.1 -24.9°
Maximum altitude 13:58:16 14° 145° (SE) 1,731 4.2 -24.6°
Drops below altitude 10° 14:00:29 10° 114° (ESE) 1,954 4.9 -24.3°
Sets 14:03:47 0° 87° (E) 2,848 6.1 -23.8°
